Mumbai, India

4:15 AM IST on January 24, 2018 (GMT +0530)
Chhatrapati Shivaji International

Weather History for VABB - March, 2013

Change the Weather History Date:

Monday, March 25, 2013

  Actual Average Record
Temperature  
Mean Temperature 82 °F -  
Max Temperature 91 °F 89 °F 105 °F (2015)
Min Temperature 74 °F 74 °F 69 °F (1997)
Cooling Degree Days 18    
Growing Degree Days 32 (Base 50)    
Moisture  
Dew Point 69 °F    
Average Humidity 61    
Maximum Humidity 79    
Minimum Humidity 38    
Precipitation  
Precipitation 0.00 in - - ()
Sea Level Pressure  
Sea Level Pressure 29.81 in    
Wind  
Wind Speed 6 mph ()    
Max Wind Speed 15 mph    
Max Gust Speed 22 mph    
Visibility 2.7 miles    
Events      
Averages and records for this station are not official NWS values.
T = Trace of Precipitation, MM = Missing Value Source: Averaged Metar Reports

Daily Weather History Graph

Daily Weather History Graph

Search for Another Location

Airport or City:

Trip Planner

Search our weather history database for the weather conditions in past years. The results will help you decide how hot, cold, wet, or windy it might be!

Date:

Astronomy

Mar. 25, 2013 Rise Set
Actual Time 6:38 AM IST 6:50 PM IST
Civil Twilight 6:16 AM IST 7:12 PM IST
Nautical Twilight 5:51 AM IST 7:38 PM IST
Astronomical Twilight 5:25 AM IST 8:03 PM IST
Moon 5:04 PM IST (3/25) 4:51 AM IST (3/25)
Length of Visible Light 12h 56m
Length of Day
12h 12m
Waxing Gibbous, 95% of the Moon is Illuminated
Mar 25
Waxing Gibbous
Mar 27
Full
Apr 3
Last Quarter
Apr 10
New
Apr 18
First Quarter

Hourly Weather History & Observations

Time (IST) Temp. Heat Index Dew Point Humidity Pressure Visibility Wind Dir Wind Speed Gust Speed Precip Events Conditions
12:10 AM 80.6 °F 85.4 °F 73.4 °F 79% 29.86 in 3.1 mi NW 8.1 mph - N/A   Haze
12:40 AM 80.6 °F 84.6 °F 71.6 °F 74% 29.86 in 3.1 mi NW 8.1 mph - N/A   Haze
1:10 AM 80.6 °F 84.6 °F 71.6 °F 74% 29.83 in 3.1 mi NNW 6.9 mph - N/A   Haze
1:40 AM 80.6 °F 83.9 °F 69.8 °F 70% 29.83 in 3.1 mi NW 4.6 mph - N/A   Haze
2:10 AM 80.6 °F 83.9 °F 69.8 °F 70% 29.83 in 3.1 mi NW 3.5 mph - N/A   Haze
2:30 AM 78 °F - 71 °F 73% 29.83 in 1 mi North 4.6 mph - -   Haze
2:40 AM 80.6 °F 83.9 °F 69.8 °F 70% 29.83 in 3.1 mi NNW 3.5 mph - N/A   Haze
3:10 AM 80.6 °F 83.9 °F 69.8 °F 70% 29.83 in 3.1 mi NW 5.8 mph - N/A   Haze
3:40 AM 78.8 °F - 69.8 °F 74% 29.80 in 3.1 mi North 3.5 mph - N/A   Haze
4:10 AM 78.8 °F - 69.8 °F 74% 29.80 in 3.1 mi North 4.6 mph - N/A   Haze
4:40 AM 78.8 °F - 69.8 °F 74% 29.83 in 3.1 mi North 5.8 mph - N/A   Haze
5:10 AM 78.8 °F - 69.8 °F 74% 29.83 in 3.1 mi NNW 5.8 mph - N/A   Haze
5:30 AM 78 °F - 69 °F 68% 29.82 in 1 mi North 3.5 mph - -   Haze
5:40 AM 78.8 °F - 69.8 °F 74% 29.83 in 3.1 mi North 4.6 mph - N/A   Haze
6:10 AM 78.8 °F - 69.8 °F 74% 29.83 in 3.1 mi North 5.8 mph - N/A   Haze
6:40 AM 78.8 °F - 69.8 °F 74% 29.83 in 3.1 mi North 3.5 mph - N/A   Haze
7:10 AM 78.8 °F - 69.8 °F 74% 29.86 in 3.1 mi North 3.5 mph - N/A   Haze
7:40 AM 78.8 °F - 69.8 °F 74% 29.86 in 3.1 mi North 6.9 mph - N/A   Haze
8:10 AM 80.6 °F 83.9 °F 69.8 °F 70% 29.86 in 3.1 mi NNW 6.9 mph - N/A   Haze
8:30 AM 80 °F - 70 °F 65% 29.88 in 1 mi NW 4.6 mph - -   Smoke
8:40 AM 80.6 °F 83.9 °F 69.8 °F 70% 29.89 in 3.1 mi NNW 4.6 mph - N/A   Haze
9:10 AM 82.4 °F 85.4 °F 68.0 °F 62% 29.89 in 3.1 mi NNW 6.9 mph - N/A   Smoke
9:40 AM 84.2 °F 87.3 °F 68.0 °F 58% 29.89 in 3.1 mi NNW 5.8 mph - N/A   Smoke
10:10 AM 84.2 °F 86.6 °F 66.2 °F 55% 29.89 in 3.1 mi ENE 4.6 mph - N/A   Smoke
10:40 AM 86.0 °F 88.2 °F 66.2 °F 51% 29.86 in 2.5 mi WNW 4.6 mph - N/A   Smoke
11:10 AM 87.8 °F 91.4 °F 68.0 °F 52% 29.86 in 2.5 mi NW 4.6 mph - N/A   Smoke
11:30 AM 90 °F - 69 °F 41% 29.87 in 1 mi NW 6.9 mph - -   Smoke
11:40 AM 87.8 °F 92.6 °F 69.8 °F 55% 29.86 in 2.5 mi West 9.2 mph - N/A   Smoke
12:10 PM 87.8 °F 93.8 °F 71.6 °F 58% 29.83 in 2.8 mi West 9.2 mph - N/A   Smoke
12:40 PM 87.8 °F 93.8 °F 71.6 °F 58% 29.83 in 2.8 mi West 11.5 mph - N/A   Smoke
1:10 PM 89.6 °F 96.2 °F 71.6 °F 55% 29.80 in 2.8 mi West 10.4 mph - N/A   Smoke
2:10 PM 89.6 °F 96.2 °F 71.6 °F 55% 29.77 in 3.1 mi West 8.1 mph 19.6 mph N/A   Smoke
2:30 PM 91 °F - 69 °F 39% 29.77 in 1 mi WNW 9.2 mph - -   Smoke
2:40 PM 89.6 °F 93.4 °F 68.0 °F 49% 29.77 in 3.1 mi WNW 10.4 mph 21.9 mph N/A   Smoke
3:10 PM 89.6 °F 93.4 °F 68.0 °F 49% 29.74 in 3.1 mi WNW 9.2 mph 20.7 mph N/A   Smoke
3:40 PM 87.8 °F 92.6 °F 69.8 °F 55% 29.74 in 3.1 mi WNW 8.1 mph 19.6 mph N/A   Smoke
4:10 PM 89.6 °F 92.2 °F 66.2 °F 46% 29.74 in 3.1 mi NW 8.1 mph 19.6 mph N/A   Smoke
4:40 PM 89.6 °F 92.2 °F 66.2 °F 46% 29.74 in 3.1 mi NW 10.4 mph - N/A   Smoke
5:10 PM 89.6 °F 92.2 °F 66.2 °F 46% 29.71 in 3.1 mi WNW 12.7 mph - N/A   Smoke
5:30 PM 89 °F - 67 °F 38% 29.72 in 1 mi WNW 9.2 mph - -   Smoke
5:40 PM 87.8 °F 91.4 °F 68.0 °F 52% 29.71 in 3.1 mi WNW 10.4 mph - N/A   Smoke
6:10 PM 84.2 °F 87.3 °F 68.0 °F 58% 29.74 in 3.1 mi WNW 15.0 mph - N/A   Smoke
6:40 PM 84.2 °F 87.3 °F 68.0 °F 58% 29.74 in 3.1 mi WNW 12.7 mph - N/A   Smoke
7:10 PM 84.2 °F 87.3 °F 68.0 °F 58% 29.74 in 2.8 mi NW 8.1 mph - N/A   Smoke
7:40 PM 82.4 °F 84.6 °F 66.2 °F 58% 29.74 in 2.5 mi NW 10.4 mph - N/A   Smoke
8:10 PM 82.4 °F 84.6 °F 66.2 °F 58% 29.74 in 2.5 mi NW 8.1 mph - N/A   Smoke
8:30 PM 82 °F - 67 °F 52% 29.75 in 1 mi NW 6.9 mph - -   Smoke
8:40 PM 82.4 °F 84.6 °F 66.2 °F 58% 29.77 in 2.8 mi NW 5.8 mph - N/A   Smoke
9:10 PM 82.4 °F 84.6 °F 66.2 °F 58% 29.77 in 2.8 mi North 4.6 mph - N/A   Smoke
9:40 PM 82.4 °F 84.6 °F 66.2 °F 58% 29.77 in 2.8 mi North 4.6 mph - N/A   Smoke
10:40 PM 82.4 °F 86.3 °F 69.8 °F 66% 29.80 in 3.1 mi NW 5.8 mph - N/A   Smoke
11:10 PM 82.4 °F 86.3 °F 69.8 °F 66% 29.80 in 3.1 mi NW 6.9 mph - N/A   Smoke
11:30 PM 81 °F - 71 °F 64% 29.79 in 1 mi NW 9.2 mph - -   Smoke
11:40 PM 80.6 °F 83.9 °F 69.8 °F 70% 29.80 in 3.1 mi WNW 9.2 mph - N/A   Smoke